Regional Weather Roundup
Issued by NWS

Home | Current Version | Previous Version | Graphics & Text | Print | Product List | Glossary On
Versions: 1 2 3 4 5 6 7 8 9 10 11 12 13 14 15 16 17 18 19 20 21 22 23 24 25 26 27 28 29 30 31 32 33 34 35 36 37 38 39 40 41 42 43 44 45 46 47 48 49 50
000
ASUS44 KMEG 011210
RWRTN
TENNESSEE HOURLY STATE WEATHER ROUNDUP
NATIONAL WEATHER SERVICE MEMPHIS TN
700 AM CDT MON SEP 01 2014

TNZ002-004-019-021-049-052-054-088>092-011300-
WEST TENNESSEE

CITY           SKY/WX    TMP DP  RH WIND       PRES   REMARKS
MEMPHIS INTL   CLOUDY    78  74  87 SW10      30.04R
NWS MEMPHIS      N/A     76 N/A N/A MISG        N/A
JACKSON        CLEAR     76  72  87 S9        30.04R
DYERSBURG      MOCLDY    75  64  69 CALM      30.04R
UNION CITY     MOCLDY    73  73 100 SW6       30.03R
PARIS          MOCLDY    72  72 100 S7        30.04R
HUNTINGDON     PTCLDY    73  71  93 S7        30.04R
LEXINGTON      PTCLDY    73  72  94 S3        30.05R
SAVANNAH       CLEAR     73  73 100 S6        30.07S
$$

TNZ008-025-027-028-033-062-065-066-011300-
NORTH MIDDLE TENNESSEE

CITY           SKY/WX    TMP DP  RH WIND       PRES   REMARKS
NASHVILLE      PTCLDY    74  72  93 S9        30.07S
DICKSON        CLEAR     72  72 100 S7        30.06S
PORTLAND       PTCLDY    72  72 100 S9        30.06S
CLARKSVILLE    PTCLDY    74  72  93 S7        30.04R
LEBANON        PTCLDY    74  70  87 S6        30.07R
SMYRNA         PTCLDY    73  72  97 S3        30.09R
MURFREESBORO   CLEAR     72  70  93 CALM      30.08S
COOKEVILLE       N/A     72  70  94 CALM      30.11S
GALLATIN       CLEAR     71  71 100 CALM      30.08S
CROSSVILLE     MOCLDY    70  67  90 CALM      30.17S
$$

TNZ061-075-076-078-094-096-097-011300-
SOUTH MIDDLE TENNESSEE

CITY           SKY/WX    TMP DP  RH WIND       PRES   REMARKS
LEWISBURG      CLEAR     73  69  87 SE3       30.08S
FAYETTEVILLE   CLEAR     72  70  94 S6        30.11S
TULLAHOMA      CLEAR     72  70  94 CALM      30.13R
WINCHESTER     CLEAR     72  70  94 E6        30.12S
MCMINNVILLE    CLEAR     72  72 100 CALM      30.12S
COLUMBIA         N/A     73  73 100 CALM      30.07R
SHELBYVILLE    CLEAR     73  72  94 SE5       30.11R
$$

TNZ017-018-042-046-047-011300-
NORTHEAST TENNESSEE

CITY           SKY/WX    TMP DP  RH WIND       PRES   REMARKS
TRI CITIES     PTSUNNY   72  68  87 CALM      30.17R
ELIZABETHTON   PTSUNNY   66  66 100 CALM      30.18S
$$

TNZ012-013-036-069-073-074-011300-
CENTRAL EAST TENNESSEE

CITY           SKY/WX    TMP DP  RH WIND       PRES   REMARKS
KNOXVILLE      CLOUDY    71  70  96 CALM      30.13R
OAK RIDGE      CLOUDY    72  70  93 CALM      30.15R
GATLINBURG     SUNNY     70  70 100 CALM      30.14S
MORRISTOWN     SUNNY     70  70 100 CALM      30.17R
$$

TNZ083-085-099-011300-
SOUTHEAST TENNESSEE

CITY           SKY/WX    TMP DP  RH WIND       PRES   REMARKS
CHATTANOOGA    MOCLDY    72  70  93 CALM      30.12S
$$

SKY/WX REPORTED AS FAIR MEANS FEW OR NO CLOUDS BELOW
12 THOUSAND FEET.




USA.gov is the U.S. government's official web portal to all federal, state and local government web resources and services.